Location: *
(32.3300°N, 34.8500°E)
Time: 17:13:57
(UTC+00:00)

Nadezhda 3 Rocket - Pass Details

Date: 22 October 2019
Orbit: 957 x 999 km, 82.9° (Epoch: 13 November)

Event Time Altitude Azimuth Distance (km) Brightness Sun altitude
Rises 02:26:58 0° 350° (N) 3,721 6.9 -18.0°
Reaches altitude 10° 02:29:31 10° 348° (NNW) 2,766 6.2 -17.5°
Maximum altitude 02:35:49 69° 267° (W) 1,057 3.9 -16.2°
Drops below altitude 10° 02:42:02 10° 185° (S) 2,728 6.3 -14.9°
Sets 02:44:32 0° 183° (S) 3,666 7.0 -14.3°
